Weather History for Sioux City, IA

Change the Weather History Date:

Saturday, December 28, 2013

  Actual Average Record
Temperature  
Mean Temperature 35 °F 20 °F  
Max Temperature 62 °F 30 °F 62 °F (2013)
Min Temperature 8 °F 11 °F -20 °F (1917)
Degree Days  
Heating Degree Days 30 45  
Month to date heating degree days 1285 1182  
Since 1 July heating degree days 2709 2658  
Cooling Degree Days 0 0  
Month to date cooling degree days 0 0  
Year to date cooling degree days 960 869  
Moisture  
Dew Point 19 °F    
Average Humidity 55    
Maximum Humidity 88    
Minimum Humidity 22    
Precipitation  
Precipitation T in 0.02 in 0.51 in (1889)
Month to date precipitation 0.16 0.74  
Year to date precipitation 26.71 27.68  
Snow  
Snow T in 0.20 in 4.10 in (1946)
Month to date snowfall 2.1 7.1  
Since 1 July snowfall 3.0 12.5  
Snow Depth 0.00 in    
Sea Level Pressure  
Sea Level Pressure 29.92 in    
Wind  
Wind Speed 19 mph (SE)    
Max Wind Speed 49 mph    
Max Gust Speed 61 mph    
Visibility 10 miles    
Events Snow    
T = Trace of Precipitation, MM = Missing Value Source: NWS Daily Summary

Daily Weather History Graph

Daily Weather History Graph

Search for Another Location

Airport:

Trip Planner

Search our weather history database for the weather conditions in past years. The results will help you decide how hot, cold, wet, or windy it might be!

Date:

Astronomy

Dec. 28, 2013 Rise Set
Actual Time 7:54 AM CST 5:00 PM CST
Civil Twilight 7:22 AM CST 5:32 PM CST
Nautical Twilight 6:46 AM CST 6:07 PM CST
Astronomical Twilight 6:12 AM CST 6:41 PM CST
Moon 3:29 AM CST (12/28) 1:54 PM CST (12/28)
Length of Visible Light 10h 10m
Length of Day
9h 06m
Waning Crescent, 19% of the Moon is Illuminated
Dec 28
Waning Crescent
Jan 1
New
Jan 7
First Quarter
Jan 15
Full
Jan 23
Last Quarter

Hourly Weather History & Observations

Time (CST) Temp. Windchill Dew Point Humidity Pressure Visibility Wind Dir Wind Speed Gust Speed Precip Events Conditions
12:52 AM 26.1 °F 17.6 °F 19.9 °F 78% 30.02 in 10.0 mi SE 8.1 mph - N/A   Clear
1:52 AM 24.1 °F 16.0 °F 19.0 °F 81% 29.99 in 10.0 mi East 6.9 mph - N/A   Clear
2:52 AM 25.0 °F 17.1 °F 19.0 °F 78% 29.95 in 10.0 mi East 6.9 mph - N/A   Clear
3:52 AM 23.0 °F 14.7 °F 18.0 °F 81% 29.93 in 10.0 mi ESE 6.9 mph - N/A   Clear
4:52 AM 24.1 °F 13.7 °F 19.9 °F 84% 29.90 in 10.0 mi ESE 10.4 mph - N/A   Clear
5:52 AM 24.1 °F 13.7 °F 19.9 °F 84% 29.91 in 10.0 mi ESE 10.4 mph - N/A   Clear
6:52 AM 24.1 °F 14.4 °F 19.9 °F 84% 29.92 in 10.0 mi ESE 9.2 mph - N/A   Clear
7:52 AM 24.1 °F 16.0 °F 21.0 °F 88% 29.90 in 10.0 mi ESE 6.9 mph - N/A   Clear
8:52 AM 28.0 °F 18.1 °F 21.9 °F 78% 29.88 in 10.0 mi SE 11.5 mph - N/A   Clear
9:52 AM 35.1 °F 27.9 °F 24.1 °F 64% 29.86 in 10.0 mi SE 9.2 mph - N/A   Clear
10:52 AM 45.0 °F 40.1 °F 24.1 °F 44% 29.83 in 10.0 mi South 9.2 mph - N/A   Clear
11:52 AM 51.1 °F - 26.1 °F 38% 29.78 in 10.0 mi South 13.8 mph - N/A   Clear
12:52 PM 57.0 °F - 23.0 °F 27% 29.74 in 10.0 mi SSW 16.1 mph - N/A   Clear
1:52 PM 59.0 °F - 21.9 °F 24% 29.71 in 10.0 mi SSW 17.3 mph - N/A   Clear
2:52 PM 61.0 °F - 21.9 °F 22% 29.72 in 10.0 mi SW 12.7 mph - N/A   Clear
3:50 PM 55.4 °F - 28.4 °F 36% 29.72 in 10.0 mi NW 23.0 mph - N/A   Clear
3:52 PM 55.0 °F - 28.0 °F 35% 29.75 in 10.0 mi NW 21.9 mph - N/A   Clear
4:52 PM 44.1 °F 34.8 °F 30.0 °F 58% 29.81 in 10.0 mi NW 25.3 mph 34.5 mph N/A   Clear
5:52 PM 37.0 °F 24.9 °F 28.0 °F 70% 29.89 in 10.0 mi NW 27.6 mph 41.4 mph 0.00 in   Clear
6:25 PM 33.1 °F 17.8 °F 26.1 °F 75% 29.87 in 9.0 mi NW 36.8 mph 49.5 mph 0.00 in Snow Light Snow
6:52 PM 28.0 °F 10.9 °F 21.0 °F 75% 29.96 in 9.0 mi NNW 36.8 mph 50.6 mph 0.00 in Snow Light Snow
7:52 PM 21.9 °F 1.5 °F 14.0 °F 72% 30.00 in 9.0 mi NNW 41.4 mph 52.9 mph 0.00 in Snow Light Snow
8:52 PM 16.0 °F -5.5 °F 8.1 °F 71% 30.08 in 9.0 mi NNW 35.7 mph 56.4 mph 0.00 in Snow Light Snow
9:52 PM 12.9 °F -9.8 °F 3.9 °F 67% 30.14 in 9.0 mi NNW 35.7 mph 49.5 mph 0.00 in Snow Light Snow
10:52 PM 10.0 °F -14.3 °F 1.0 °F 67% 30.20 in 9.0 mi NNW 38.0 mph 50.6 mph 0.00 in Snow Light Snow
11:52 PM 8.1 °F -16.5 °F -0.9 °F 67% 30.23 in 9.0 mi NNW 35.7 mph 47.2 mph 0.00 in Snow Light Snow